Skip Page Navigation
NASA JPL Caltech
NASA Logo - Jet Propulsion Laboratory + View the NASA Portal
+ Near-Earth Object (NEO) Program
Search JPL
JPL Home Earth Solar System Stars & Galaxies Technology
JPL Solar System Dynamics
BODIES ORBITS EPHEMERIDES TOOLS PHYSICAL DATA DISCOVERY FAQ SITE MAP
JPL Small-Body Database Browser
Search: [ help ]  
226554 (2003 WR21)
Classification: Apollo [NEO, PHA]          SPK-ID: 2226554
Ephemeris | Orbit Diagram | Orbital Elements | Physical Parameters | Discovery Circumstances | Close-Approach Data ]

[ hide orbit diagram ]
Orbit Diagram
Note: Make sure you have Java enabled on your browser to see the applet. This applet is provided as a 3D orbit visualization tool. The applet was implemented using 2-body methods, and hence should not be used for determining accurate long-term trajectories (over several years or decades) or planetary encounter circumstances. For accurate long-term ephemerides, please instead use our Horizons system.
Orbit Viewer

Additional Notes: the orbits shown in the applet are color coded. The planets are white lines, and the asteroid/comet is a blue line. The bright white line indicates the portion of the orbit that is above the ecliptic plane, and the darker portion is below the ecliptic plane. Likewise for the asteroid/comet orbit, the light blue indicates the portion above the ecliptic plane, and the dark blue the portion below the ecliptic plane.

Orbit Viewer applet originally written and kindly provided by Osamu Ajiki (AstroArts), and further modified by Ron Baalke (JPL).


Orbital Elements at Epoch 2456400.5 (2013-Apr-18.0) TDB
Reference: JPL 39 (heliocentric ecliptic J2000)
 Element Value Uncertainty (1-sigma)   Units 
e .2614304561497702 9.8923e-08  
a 1.118784453774258 6.8126e-09 AU
q .8263001236907818 1.1005e-07 AU
i 9.274153841496235 9.5321e-06 deg
node 85.89157384234412 3.8059e-05 deg
peri 107.9900063348359 4.1321e-05 deg
M 224.1007142778537 3.0258e-05 deg
tp 2456563.667152533227
(2013-Sep-28.16715253)
3.627e-05 JED
period 432.2331394151636
1.18
3.948e-06
1.081e-08
d
yr
n .8328838470995092 7.6075e-09 deg/d
Q 1.411268783857733 8.5936e-09 AU
  Orbit Determination Parameters
   # obs. used (total)      152  
   data-arc span      7521 days (20.59 yr)  
   first obs. used      1990-10-24  
   last obs. used      2011-05-28  
   planetary ephem.      DE405  
   SB-pert. ephem.      SB405-CPV-2  
   condition code      0  
   fit RMS      .60462  
   data source      ORB  
   producer      Otto Matic  
   solution date      2013-Apr-29 15:40:47  

Additional Information
 Earth MOID = .0293976 AU 
 T_jup = 5.534 
[ show covariance matrix ]

Ephemeris | Orbit Diagram | Orbital Elements | Physical Parameters | Discovery Circumstances | Close-Approach Data ]

Physical Parameter Table
Parameter Symbol Value Units Sigma Reference Notes
absolute magnitude H 19.424 mag .60496 39 autocmod 2.5c

226554 (2003 WR21)          Discovered 2003-Nov-20 by CSS at Catalina (703)
Reference: 20091202/Numbers.arcLast Updated: 2009-12-04

[ show close-approach data ]
Ephemeris | Orbit Diagram | Orbital Elements | Physical Parameters | Discovery Circumstances | Close-Approach Data ]
ABOUT SSD CREDITS/AWARDS PRIVACY/COPYRIGHT GLOSSARY LINKS
FirstGov 2013-May-21 18:55 UT
(server date/time)  
NASA Home Page
Site Manager:   Donald K. Yeomans
Webmaster  Alan B. Chamberlin